#timestamp,LO_Frequency,Hit,StdDev 
1538694015.4,286046999.2,N
1538694035.2,286046996.5,N
1538694055.0,286046997.2,N
1538694055.9,286046997.2,N
1538694075.8,286046999.2,N
1538694095.6,286046999.4,N
1538694115.5,286047000.6,N
1538694135.3,286047000.2,N
1538694155.1,286047000.4,N
1538694175.9,286047001.1,N
1538694195.7,286047001.2,N
1538694215.5,286046998.2,N
1538694235.4,286046998.6,N
1538694255.2,286047000.0,N
1538694275.1,286047002.7,N
1538694276.0,286047002.7,N
1538694295.8,286047000.3,N
1538694315.6,286046998.1,N
1538694335.5,286047002.8,N
1538694355.3,286047002.7,N
1538694375.1,286047002.4,N
1538694395.9,286047000.3,N
1538694415.7,286047000.5,N
1538694435.6,286047000.3,N
1538694455.4,286047002.4,N
1538694475.2,286046999.7,N
1538694495.1,286047000.6,N
1538694496.0,286047000.6,N
1538694515.8,286047001.1,N
1538694535.7,286047000.0,N
1538694555.5,286047002.3,N
1538694575.3,286047002.3,N
1538694595.2,286047000.5,N
1538694615.0,286047000.8,N
1538694615.9,286047000.8,N
1538694635.7,286047000.6,N
1538694655.6,286047001.0,N
1538694675.4,286046999.0,N
1538694695.3,286046999.5,N
1538694715.1,286046996.7,N
1538694735.8,286046999.3,N
1538694755.7,286046998.2,N
1538694775.5,286047002.2,N
1538694795.4,286047002.1,N
1538694815.2,286046999.9,N
1538694835.0,286046999.8,N
1538694835.9,286046999.8,N
1538694855.8,286046998.1,N
1538694875.6,286046998.2,N
1538694895.5,286046999.2,N
1538694915.3,286046999.4,N
1538694935.1,286046999.3,N
1538694955.9,286046999.5,N
1538694975.7,286046999.8,N
1538694995.5,286047001.0,N
1538695015.4,286047000.8,N
1538695035.2,286047000.4,N
1538695055.1,286047000.7,N
1538695056.0,286047000.7,N
1538695075.8,286046998.4,N
1538695095.6,286046998.8,N
1538695115.5,286046998.5,N
1538695135.3,286046999.0,N
1538695155.2,286047002.2,N
1538695175.9,286047002.1,N
1538695195.7,286046999.8,N
1538695215.6,286047002.6,N
1538695235.4,286047002.3,N
1538695255.2,286047000.5,N
1538695275.1,286047000.6,N
1538695276.0,286047000.6,N
1538695295.8,286046998.2,N
1538695315.7,286046999.2,N
1538695335.5,286046999.6,N
1538695355.4,286046998.9,N
1538695375.2,286046998.3,N
1538695395.0,286046998.1,N
1538695395.9,286046998.1,N
1538695415.8,286047000.5,N
1538695435.6,286046999.1,N
1538695455.4,286046998.1,N
1538695475.3,286046999.8,N
1538695495.1,286047000.8,N
1538695515.9,286046998.2,N
1538695535.7,286047002.7,N
1538695555.5,286047000.6,N
1538695575.4,286047003.4,N
1538695595.2,286047002.0,N
1538695615.1,286047001.3,N
1538695616.0,286047001.3,N
1538695635.8,286047003.6,N
1538695655.6,286047001.4,N
1538695675.5,286047003.7,N
1538695695.3,286047000.1,N
1538695715.2,286046999.4,N
1538695735.9,286047000.8,N
1538695755.7,286046998.5,N
1538695775.6,286046996.9,N
1538695795.4,286046999.4,N
1538695815.2,286046998.7,N
1538695835.1,286047000.3,N
1538695836.0,286047000.3,N
1538695855.8,286047003.2,N
1538695875.7,286047000.4,N
1538695895.5,286046998.9,N
1538695915.3,286046998.1,N
1538695935.2,286046996.6,N
1538695955.0,286046999.1,N
1538695955.9,286046999.1,N
1538696005.8,286047001.2,E
1538696015.7,286046996.6,N
1538696035.5,286046998.8,P
1538696055.4,286046997.3,N
1538696075.2,286046998.6,N
1538696095.1,286047000.7,N
1538696096.0,286047000.7,N
1538696115.8,286046998.4,N
1538696135.6,286046999.1,N
1538696155.5,286046996.8,N
1538696175.3,286046999.3,N
1538696195.1,286046999.2,N
1538696215.9,286046999.3,N
1538696235.7,286047000.3,N
1538696255.6,286047000.9,N
1538696275.4,286046998.8,N
1538696295.2,286047002.1,N
1538696315.1,286047002.4,N
1538696316.0,286047002.4,N
1538696335.8,286046998.6,N
1538696355.7,286046998.5,N
1538696375.5,286047002.6,N
1538696395.3,286046998.2,N
1538696415.2,286046997.3,N
1538696435.0,286046995.2,N
1538696435.9,286046995.2,N
1538696455.8,286046996.5,N
1538696475.6,286046996.1,N
1538696495.4,286046995.9,N
1538696515.3,286046997.9,N
1538696535.1,286046997.7,N
1538696555.9,286046998.0,N
1538696575.7,286046996.7,N
1538696595.5,286046999.6,N
1538696615.4,286046997.4,N
1538696635.2,286046997.9,N
1538696655.0,286046997.7,N
1538696655.9,286046997.7,N
1538696675.8,286046995.2,N
1538696695.6,286046995.4,N
1538696715.5,286046995.5,N
1538696735.3,286046995.6,N
1538696755.1,286046993.6,N
1538696775.9,286046993.8,N
1538696795.7,286046996.2,N
1538696815.5,286046996.2,N
1538696835.4,286046993.9,N
1538696855.2,286046993.7,N
1538696875.1,286046997.2,N
1538696876.0,286046997.2,N
1538696895.8,286046998.0,N
1538696915.6,286046995.2,N
1538696935.5,286046996.9,N
1538696955.3,286046996.8,N
1538696975.1,286046996.6,N
1538696995.9,286046995.1,Y
1538697015.7,286047000.3,P
1538697035.6,286047000.7,N
1538697055.4,286046996.8,N
1538697075.2,286046996.5,N
1538697095.1,286046998.4,N
1538697096.0,286046998.4,N
1538697115.8,286046998.5,N
1538697135.7,286046998.4,N
1538697155.5,286047000.7,N
1538697175.3,286047002.4,N
1538697195.2,286046998.1,N
1538697215.9,286047000.3,N
1538697235.7,286047000.8,N
1538697255.6,286046996.5,N
1538697275.4,286046998.8,N
1538697295.3,286046998.8,N
1538697315.1,286047002.0,N
1538697316.0,286047002.0,N
1538697335.8,286047002.7,N
1538697355.7,286046998.1,N
1538697375.5,286046999.3,N
1538697395.3,286046998.2,N
1538697415.2,286046996.6,N
1538697435.0,286046999.6,N
1538697435.9,286046999.6,N
1538697455.8,286046998.8,N
1538697475.6,286047002.1,N
1538697495.4,286047000.3,N
1538697515.3,286047000.6,N
1538697535.1,286046998.9,N
1538697555.8,286046998.8,N
1538697575.7,286046998.9,N
1538697595.5,286046998.9,N
